| time (UTC) | temp F | wind direction | speed knots | gust knots | rain 1hr in | rain 24hr in | rain mn in | humidity % | barometer mb |
| 20260906025817 | 75 | 292 | 0.0 | 0.0 | 0.00 | 0.00 | 0.00 | 86 | 1048.1 |
| 20260906025311 | 75 | 292 | 0.0 | 0.0 | 0.00 | 0.00 | 0.00 | 86 | 1048.4 |
| 20260906024810 | 75 | 292 | 0.0 | 0.0 | 0.00 | 0.00 | 0.00 | 86 | 1048.4 |
| 20260906024309 | 75 | 292 | 0.0 | 0.0 | 0.00 | 0.00 | 0.00 | 86 | 1048.1 |
| 20260906023804 | 75 | 292 | 0.0 | 0.0 | 0.00 | 0.00 | 0.00 | 86 | 1048.4 |
| 20260906023300 | 75 | 292 | 0.0 | 0.0 | 0.00 | 0.00 | 0.00 | 87 | 1048.4 |
| 20260906022755 | 76 | 292 | 0.0 | 0.0 | 0.00 | 0.00 | 0.00 | 89 | 1048.4 |
| 20260906022251 | 76 | 292 | 0.0 | 0.0 | 0.00 | 0.00 | 0.00 | 88 | 1048.4 |
| 20260906021747 | 77 | 292 | 0.0 | 0.0 | 0.00 | 0.00 | 0.00 | 87 | 1048.3 |
| 20260906021245 | 77 | 292 | 0.0 | 0.0 | 0.00 | 0.00 | 0.00 | 86 | 1048.1 |
| 20260906020741 | 77 | 292 | 0.0 | 0.0 | 0.00 | 0.00 | 0.00 | 85 | 1048.1 |
| 20260906020240 | 77 | 292 | 0.0 | 0.0 | 0.00 | 0.00 | 0.00 | 86 | 1048.1 |
| 20260906015735 | 77 | 292 | 0.0 | 0.0 | 0.00 | 0.00 | 0.00 | 85 | 1048.0 |
| 20260906015233 | 77 | 292 | 0.0 | 0.0 | 0.00 | 0.00 | 0.00 | 85 | 1048.3 |
| 20260906014728 | 77 | 292 | 0.0 | 0.0 | 0.00 | 0.00 | 0.00 | 86 | 1048.2 |
| 20260906014224 | 77 | 292 | 0.0 | 0.0 | 0.00 | 0.00 | 0.00 | 88 | 1048.3 |
| 20260906013720 | 76 | 292 | 0.0 | 0.0 | 0.00 | 0.00 | 0.00 | 89 | 1048.0 |
| 20260906013220 | 76 | 292 | 0.0 | 0.0 | 0.00 | 0.00 | 0.00 | 90 | 1048.0 |
| 20260906012715 | 77 | 292 | 0.0 | 0.0 | 0.00 | 0.00 | 0.00 | 89 | 1047.8 |
| 20260906012210 | 77 | 293 | 0.0 | 0.0 | 0.00 | 0.00 | 0.00 | 88 | 1048.1 |
| 20260906011706 | 78 | 292 | 0.0 | 0.0 | 0.00 | 0.00 | 0.00 | 89 | 1047.7 |
| 20260906011205 | 78 | 292 | 0.0 | 0.0 | 0.00 | 0.00 | 0.00 | 88 | 1047.5 |
| 20260906010700 | 78 | 292 | 0.0 | 0.0 | 0.00 | 0.00 | 0.00 | 85 | 1047.4 |
| 20260906010157 | 79 | 292 | 0.0 | 0.0 | 0.00 | 0.00 | 0.00 | 84 | 1047.4 |
| 20260906005656 | 79 | 292 | 0.0 | 0.0 | 0.00 | 0.00 | 0.00 | 84 | 1047.5 |
| 20260906005156 | 79 | 292 | 0.0 | 0.0 | 0.00 | 0.00 | 0.00 | 83 | 1047.5 |
| 20260906004655 | 80 | 292 | 0.0 | 0.0 | 0.00 | 0.00 | 0.00 | 82 | 1047.5 |
| 20260906004150 | 80 | 292 | 0.0 | 0.0 | 0.00 | 0.00 | 0.00 | 82 | 1047.6 |
| 20260906003645 | 80 | 292 | 0.0 | 0.0 | 0.00 | 0.00 | 0.00 | 80 | 1047.4 |
| 20260906003141 | 80 | 292 | 0.0 | 0.0 | 0.00 | 0.00 | 0.00 | 78 | 1047.4 |
| 20260906002636 | 81 | 292 | 0.0 | 0.0 | 0.00 | 0.00 | 0.00 | 76 | 1047.4 |
| 20260906002130 | 81 | 292 | 0.0 | 0.0 | 0.00 | 0.00 | 0.00 | 75 | 1047.4 |
| 20260906001626 | 81 | 292 | 0.0 | 0.0 | 0.00 | 0.00 | 0.00 | 74 | 1047.6 |
| 20260906001126 | 82 | 292 | 0.0 | 0.0 | 0.00 | 0.00 | 0.00 | 76 | 1047.7 |
| 20260906000622 | 82 | 292 | 0.0 | 0.0 | 0.00 | 0.00 | 0.00 | 76 | 1047.7 |
| 20260906000117 | 83 | 292 | 0.0 | 0.0 | 0.00 | 0.00 | 0.00 | 75 | 1047.9 |
| 20260905235616 | 83 | 292 | 0.0 | 0.0 | 0.00 | 0.00 | 0.00 | 73 | 1047.8 |
| 20260905235111 | 84 | 293 | 0.0 | 0.0 | 0.00 | 0.00 | 0.00 | 73 | 1047.8 |
| 20260905234606 | 84 | 292 | 0.0 | 0.0 | 0.00 | 0.00 | 0.00 | 71 | 1048.0 |
| 20260905234101 | 84 | 292 | 0.0 | 0.0 | 0.00 | 0.00 | 0.00 | 70 | 1047.9 |
| 20260905233601 | 85 | 292 | 0.0 | 0.0 | 0.00 | 0.00 | 0.00 | 71 | 1048.0 |
| 20260905233056 | 86 | 293 | 0.0 | 0.0 | 0.00 | 0.00 | 0.00 | 71 | 1047.9 |
| 20260905232551 | 87 | 293 | 0.0 | 0.0 | 0.00 | 0.00 | 0.00 | 72 | 1048.1 |
| 20260905232047 | 87 | 293 | 0.0 | 0.0 | 0.00 | 0.00 | 0.00 | 68 | 1048.1 |
| 20260905231542 | 88 | 293 | 0.0 | 0.0 | 0.00 | 0.00 | 0.00 | 67 | 1048.2 |
| 20260905231038 | 88 | 293 | 0.0 | 0.0 | 0.00 | 0.00 | 0.00 | 66 | 1048.3 |
| 20260905230537 | 89 | 293 | 0.0 | 0.0 | 0.00 | 0.00 | 0.00 | 61 | 1048.2 |
| 20260905230036 | 89 | 293 | 0.0 | 0.0 | 0.00 | 0.00 | 0.00 | 58 | 1048.1 |
| 20260905225531 | 90 | 293 | 0.0 | 0.0 | 0.00 | 0.00 | 0.00 | 60 | 1047.9 |
| 20260905225026 | 90 | 293 | 0.0 | 0.0 | 0.00 | 0.00 | 0.00 | 60 | 1047.8 |
| 20260905224521 | 91 | 293 | 0.0 | 0.0 | 0.00 | 0.00 | 0.00 | 58 | 1047.9 |
| 20260905224020 | 91 | 293 | 0.0 | 0.0 | 0.00 | 0.00 | 0.00 | 58 | 1047.8 |
| 20260905223518 | 91 | 293 | 0.0 | 0.0 | 0.00 | 0.00 | 0.00 | 60 | 1048.0 |
| 20260905223014 | 92 | 293 | 0.0 | 0.0 | 0.00 | 0.00 | 0.00 | 58 | 1047.9 |
| 20260905222513 | 92 | 293 | 0.0 | 0.9 | 0.00 | 0.00 | 0.00 | 55 | 1048.1 |
| 20260905222009 | 93 | 292 | 0.0 | 0.9 | 0.00 | 0.00 | 0.00 | 54 | 1048.1 |
| 20260905221505 | 94 | 295 | 1.7 | 2.6 | 0.00 | 0.00 | 0.00 | 54 | 1048.1 |
| 20260905221001 | 94 | 228 | 0.0 | 0.9 | 0.00 | 0.00 | 0.00 | 52 | 1048.2 |
| 20260905220457 | 95 | 227 | 0.9 | 0.9 | 0.00 | 0.00 | 0.00 | 55 | 1048.0 |
| 20260905215956 | 95 | 226 | 0.0 | 0.0 | 0.00 | 0.00 | 0.00 | 56 | 1047.9 |
| 20260905215451 | 94 | 226 | 0.0 | 0.0 | 0.00 | 0.00 | 0.00 | 51 | 1047.9 |
| 20260905214948 | 94 | 226 | 0.0 | 1.7 | 0.00 | 0.00 | 0.00 | 46 | 1047.8 |
| 20260905214443 | 94 | 288 | 0.0 | 0.9 | 0.00 | 0.00 | 0.00 | 52 | 1047.9 |
| 20260905213943 | 94 | 289 | 1.7 | 2.6 | 0.00 | 0.00 | 0.00 | 50 | 1047.8 |
| 20260905213439 | 94 | 294 | 0.0 | 1.7 | 0.00 | 0.00 | 0.00 | 51 | 1047.8 |
| 20260905212934 | 95 | 296 | 1.7 | 2.6 | 0.00 | 0.00 | 0.00 | 50 | 1047.7 |
| 20260905212429 | 95 | 294 | 0.9 | 1.7 | 0.00 | 0.00 | 0.00 | 48 | 1047.7 |
| 20260905211928 | 95 | 292 | 2.6 | 2.6 | 0.00 | 0.00 | 0.00 | 50 | 1047.9 |
| 20260905211424 | 95 | 289 | 0.0 | 0.9 | 0.00 | 0.00 | 0.00 | 47 | 1047.6 |
| 20260905210920 | 95 | 289 | 0.0 | 0.9 | 0.00 | 0.00 | 0.00 | 52 | 1047.9 |
| 20260905210420 | 94 | 294 | 0.9 | 1.7 | 0.00 | 0.00 | 0.00 | 53 | 1047.6 |
| 20260905205920 | 94 | 302 | 0.0 | 0.9 | 0.00 | 0.00 | 0.00 | 51 | 1047.8 |
| 20260905205415 | 94 | 298 | 0.9 | 3.5 | 0.00 | 0.00 | 0.00 | 51 | 1047.9 |
| 20260905204913 | 94 | 294 | 0.0 | 0.0 | 0.00 | 0.00 | 0.00 | 47 | 1047.6 |
| 20260905204410 | 95 | 289 | 0.9 | 2.6 | 0.00 | 0.00 | 0.00 | 49 | 1048.0 |
| 20260905203909 | 95 | 265 | 0.0 | 7.0 | 0.00 | 0.00 | 0.00 | 51 | 1047.9 |
| 20260905203404 | 94 | 93 | 0.0 | 0.9 | 0.00 | 0.00 | 0.00 | 46 | 1047.9 |
| 20260905202900 | 95 | 297 | 2.6 | 5.2 | 0.00 | 0.00 | 0.00 | 46 | 1048.0 |
| 20260905202354 | 94 | 289 | 0.0 | 0.0 | 0.00 | 0.00 | 0.00 | 48 | 1048.3 |
| 20260905201851 | 94 | 289 | 0.9 | 0.9 | 0.00 | 0.00 | 0.00 | 49 | 1048.2 |
| 20260905201346 | 94 | 285 | 1.7 | 2.6 | 0.00 | 0.00 | 0.00 | 50 | 1048.2 |
| 20260905200845 | 94 | 282 | 2.6 | 6.1 | 0.00 | 0.00 | 0.00 | 46 | 1048.4 |
| 20260905200342 | 96 | 278 | 2.6 | 2.6 | 0.00 | 0.00 | 0.00 | 50 | 1048.5 |
| 20260905195840 | 96 | 289 | 0.0 | 2.6 | 0.00 | 0.00 | 0.00 | 48 | 1048.5 |
| 20260905195335 | 96 | 164 | 0.0 | 0.0 | 0.00 | 0.00 | 0.00 | 50 | 1048.5 |
| 20260905194831 | 95 | 166 | 0.0 | 0.9 | 0.00 | 0.00 | 0.00 | 49 | 1048.6 |
| 20260905194330 | 96 | 170 | 1.7 | 2.6 | 0.00 | 0.00 | 0.00 | 49 | 1048.9 |
| 20260905193829 | 96 | 149 | 0.9 | 2.6 | 0.00 | 0.00 | 0.00 | 46 | 1048.8 |
| 20260905193324 | 95 | 172 | 0.9 | 1.7 | 0.00 | 0.00 | 0.00 | 47 | 1048.9 |
| 20260905192820 | 94 | 298 | 0.9 | 0.9 | 0.00 | 0.00 | 0.00 | 48 | 1048.9 |
| 20260905192316 | 95 | 296 | 1.7 | 2.6 | 0.00 | 0.00 | 0.00 | 51 | 1049.0 |
| 20260905191815 | 95 | 262 | 0.0 | 0.9 | 0.00 | 0.00 | 0.00 | 48 | 1048.9 |
| 20260905191314 | 95 | 257 | 0.0 | 2.6 | 0.00 | 0.00 | 0.00 | 46 | 1049.1 |
| 20260905190813 | 94 | 240 | 0.9 | 3.5 | 0.00 | 0.00 | 0.00 | 49 | 1049.1 |
| 20260905190312 | 93 | 162 | 1.7 | 3.5 | 0.00 | 0.00 | 0.00 | 55 | 1049.0 |
| 20260905185812 | 93 | 159 | 0.0 | 2.6 | 0.00 | 0.00 | 0.00 | 46 | 1049.3 |
| 20260905185307 | 93 | 163 | 0.9 | 1.7 | 0.00 | 0.00 | 0.00 | 52 | 1049.5 |
| 20260905184806 | 92 | 196 | 2.6 | 6.1 | 0.00 | 0.00 | 0.00 | 53 | 1049.5 |
| 20260905184305 | 93 | 120 | 1.7 | 2.6 | 0.00 | 0.00 | 0.00 | 51 | 1049.5 |
| 20260905183804 | 93 | 167 | 0.9 | 1.7 | 0.00 | 0.00 | 0.00 | 47 | 1049.5 |
| 20260905183300 | 92 | 123 | 0.9 | 3.5 | 0.00 | 0.00 | 0.00 | 53 | 1049.8 |
| 20260905182800 | 92 | 146 | 3.5 | 2.6 | 0.00 | 0.00 | 0.00 | 49 | 1049.8 |
| 20260905182300 | 91 | 253 | 1.7 | 5.2 | 0.00 | 0.00 | 0.00 | 56 | 1049.8 |
| 20260905181755 | 91 | 120 | 1.7 | 3.5 | 0.00 | 0.00 | 0.00 | 55 | 1050.0 |
| 20260905181255 | 91 | 93 | 1.7 | 3.5 | 0.00 | 0.00 | 0.00 | 56 | 1050.0 |
| 20260905180754 | 91 | 167 | 0.9 | 3.5 | 0.00 | 0.00 | 0.00 | 57 | 1050.0 |
| 20260905180249 | 92 | 112 | 2.6 | 2.6 | 0.00 | 0.00 | 0.00 | 49 | 1049.9 |
| 20260905175744 | 91 | 175 | 0.0 | 1.7 | 0.00 | 0.00 | 0.00 | 51 | 1050.0 |
| 20260905175238 | 91 | 169 | 4.3 | 5.2 | 0.00 | 0.00 | 0.00 | 48 | 1050.4 |
| 20260905174733 | 92 | 157 | 2.6 | 5.2 | 0.00 | 0.00 | 0.00 | 51 | 1050.3 |
| 20260905174229 | 91 | 175 | 1.7 | 3.5 | 0.00 | 0.00 | 0.00 | 51 | 1050.2 |
| 20260905173726 | 89 | 196 | 0.9 | 3.5 | 0.00 | 0.00 | 0.00 | 59 | 1050.1 |
| 20260905173222 | 90 | 107 | 0.9 | 5.2 | 0.00 | 0.00 | 0.00 | 53 | 1050.2 |
| 20260905172721 | 89 | 118 | 1.7 | 1.7 | 0.00 | 0.00 | 0.00 | 56 | 1050.4 |
| 20260905172220 | 90 | 152 | 3.5 | 7.0 | 0.00 | 0.00 | 0.00 | 49 | 1050.3 |
| 20260905171716 | 91 | 145 | 1.7 | 2.6 | 0.00 | 0.00 | 0.00 | 56 | 1050.5 |
| 20260905171212 | 90 | 129 | 0.9 | 1.7 | 0.00 | 0.00 | 0.00 | 59 | 1050.6 |
| 20260905170709 | 89 | 127 | 1.7 | 2.6 | 0.00 | 0.00 | 0.00 | 56 | 1050.4 |
| 20260905170209 | 89 | 154 | 1.7 | 3.5 | 0.00 | 0.00 | 0.00 | 54 | 1050.7 |
| 20260905165709 | 90 | 197 | 0.9 | 1.7 | 0.00 | 0.00 | 0.00 | 58 | 1050.7 |
| 20260905165204 | 89 | 155 | 1.7 | 1.7 | 0.00 | 0.00 | 0.00 | 55 | 1050.8 |
| 20260905164659 | 88 | 160 | 0.9 | 2.6 | 0.00 | 0.00 | 0.00 | 51 | 1050.6 |
| 20260905164159 | 87 | 109 | 0.9 | 2.6 | 0.00 | 0.00 | 0.00 | 56 | 1050.7 |
| 20260905163655 | 87 | 112 | 2.6 | 6.1 | 0.00 | 0.00 | 0.00 | 55 | 1050.5 |
| 20260905163151 | 88 | 172 | 4.3 | 6.1 | 0.00 | 0.00 | 0.00 | 57 | 1050.5 |
| 20260905162647 | 87 | 102 | 0.9 | 2.6 | 0.00 | 0.00 | 0.00 | 57 | 1050.5 |
| 20260905162147 | 88 | 167 | 4.3 | 6.1 | 0.00 | 0.00 | 0.00 | 55 | 1050.6 |
| 20260905161647 | 88 | 153 | 4.3 | 5.2 | 0.00 | 0.00 | 0.00 | 58 | 1050.7 |
| 20260905161139 | 86 | 75 | 1.7 | 2.6 | 0.00 | 0.00 | 0.00 | 63 | 1050.5 |
| 20260905160639 | 87 | 150 | 5.2 | 6.1 | 0.00 | 0.00 | 0.00 | 54 | 1050.9 |
| 20260905160138 | 87 | 140 | 3.5 | 3.5 | 0.00 | 0.00 | 0.00 | 59 | 1050.9 |
| 20260905155632 | 87 | 226 | 0.9 | 3.5 | 0.00 | 0.00 | 0.00 | 62 | 1051.0 |
| 20260905155131 | 85 | 171 | 2.6 | 3.5 | 0.00 | 0.00 | 0.00 | 62 | 1050.9 |
| 20260905154631 | 85 | 160 | 2.6 | 5.2 | 0.00 | 0.00 | 0.00 | 61 | 1051.4 |
| 20260905154127 | 84 | 170 | 3.5 | 3.5 | 0.00 | 0.00 | 0.00 | 63 | 1051.1 |
| 20260905153623 | 84 | 147 | 4.3 | 5.2 | 0.00 | 0.00 | 0.00 | 62 | 1051.1 |
| 20260905153118 | 83 | 97 | 2.6 | 3.5 | 0.00 | 0.00 | 0.00 | 64 | 1051.4 |
| 20260905152613 | 83 | 104 | 2.6 | 5.2 | 0.00 | 0.00 | 0.00 | 66 | 1051.5 |
| 20260905152108 | 83 | 133 | 2.6 | 6.1 | 0.00 | 0.00 | 0.00 | 63 | 1051.4 |
| 20260905151603 | 83 | 138 | 3.5 | 7.8 | 0.00 | 0.00 | 0.00 | 66 | 1051.4 |
| 20260905151058 | 83 | 143 | 2.6 | 3.5 | 0.00 | 0.00 | 0.00 | 67 | 1051.5 |
| 20260905150553 | 82 | 139 | 0.9 | 1.7 | 0.00 | 0.00 | 0.00 | 68 | 1051.2 |
| 20260905150052 | 82 | 156 | 1.7 | 3.5 | 0.00 | 0.00 | 0.00 | 71 | 1051.3 |
| 20260905145550 | 82 | 128 | 1.7 | 6.1 | 0.00 | 0.00 | 0.00 | 68 | 1051.5 |
| 20260905145049 | 80 | 133 | 2.6 | 5.2 | 0.00 | 0.00 | 0.00 | 71 | 1051.6 |
| 20260905144544 | 80 | 139 | 3.5 | 5.2 | 0.00 | 0.00 | 0.00 | 71 | 1051.7 |
| 20260905144044 | 80 | 75 | 3.5 | 3.5 | 0.00 | 0.00 | 0.00 | 71 | 1051.6 |
| 20260905143543 | 82 | 120 | 1.7 | 7.0 | 0.00 | 0.00 | 0.00 | 69 | 1051.6 |
| 20260905143039 | 81 | 133 | 3.5 | 6.1 | 0.00 | 0.00 | 0.00 | 70 | 1051.8 |
| 20260905142537 | 80 | 104 | 0.0 | 2.6 | 0.00 | 0.00 | 0.00 | 75 | 1051.7 |
| 20260905142033 | 79 | 124 | 0.9 | 2.6 | 0.00 | 0.00 | 0.00 | 74 | 1051.7 |
| 20260905141533 | 79 | 119 | 3.5 | 3.5 | 0.00 | 0.00 | 0.00 | 73 | 1051.7 |
| 20260905141029 | 79 | 71 | 2.6 | 3.5 | 0.00 | 0.00 | 0.00 | 73 | 1051.7 |
| 20260905140530 | 77 | 69 | 1.7 | 3.5 | 0.00 | 0.00 | 0.00 | 78 | 1051.6 |
| 20260905140028 | 76 | 71 | 2.6 | 5.2 | 0.00 | 0.00 | 0.00 | 77 | 1051.6 |
| 20260905135524 | 76 | 32 | 0.9 | 3.5 | 0.00 | 0.00 | 0.00 | 82 | 1051.7 |
| 20260905135020 | 75 | 97 | 3.5 | 3.5 | 0.00 | 0.00 | 0.00 | 81 | 1051.8 |
| 20260905134520 | 74 | 92 | 0.9 | 2.6 | 0.00 | 0.00 | 0.00 | 83 | 1052.0 |
| 20260905134018 | 74 | 8 | 1.7 | 3.5 | 0.00 | 0.00 | 0.00 | 83 | 1052.0 |
| 20260905133514 | 74 | 100 | 1.7 | 8.7 | 0.00 | 0.00 | 0.00 | 84 | 1051.6 |
| 20260905133013 | 73 | 15 | 3.5 | 7.0 | 0.00 | 0.00 | 0.00 | 85 | 1051.9 |
| 20260905132508 | 73 | 3 | 3.5 | 7.0 | 0.00 | 0.00 | 0.00 | 85 | 1052.1 |
| 20260905132008 | 73 | 35 | 3.5 | 11.3 | 0.00 | 0.00 | 0.00 | 86 | 1052.3 |
| 20260905131504 | 73 | 69 | 2.6 | 6.1 | 0.00 | 0.00 | 0.00 | 87 | 1052.3 |
| 20260905130959 | 73 | 49 | 3.5 | 7.8 | 0.00 | 0.00 | 0.00 | 85 | 1052.2 |
| 20260905130458 | 74 | 30 | 3.5 | 8.7 | 0.00 | 0.00 | 0.00 | 84 | 1052.2 |
| 20260905125957 | 74 | 60 | 3.5 | 7.0 | 0.00 | 0.00 | 0.00 | 81 | 1052.4 |
| 20260905125452 | 74 | 94 | 0.0 | 7.0 | 0.00 | 0.00 | 0.00 | 82 | 1052.2 |
| 20260905124948 | 74 | 32 | 0.0 | 3.5 | 0.00 | 0.00 | 0.00 | 81 | 1052.1 |
| 20260905124445 | 74 | 271 | 3.5 | 5.2 | 0.00 | 0.00 | 0.00 | 83 | 1051.9 |
| 20260905123940 | 74 | 315 | 3.5 | 3.5 | 0.00 | 0.00 | 0.00 | 83 | 1051.7 |
| 20260905123436 | 74 | 20 | 0.0 | 0.9 | 0.00 | 0.00 | 0.00 | 82 | 1051.4 |
| 20260905122937 | 74 | 14 | 0.9 | 1.7 | 0.00 | 0.00 | 0.00 | 82 | 1051.3 |
| 20260905122436 | 74 | 36 | 0.9 | 1.7 | 0.00 | 0.00 | 0.00 | 82 | 1051.5 |
| 20260905121932 | 74 | 48 | 1.7 | 2.6 | 0.00 | 0.00 | 0.00 | 82 | 1051.5 |
| 20260905121428 | 74 | 15 | 0.9 | 1.7 | 0.00 | 0.00 | 0.00 | 82 | 1051.4 |
| 20260905120926 | 74 | 73 | 0.0 | 2.6 | 0.00 | 0.00 | 0.00 | 83 | 1051.2 |
| 20260905120421 | 74 | 63 | 1.7 | 2.6 | 0.00 | 0.00 | 0.00 | 82 | 1051.6 |
| 20260905115916 | 74 | 335 | 0.0 | 2.6 | 0.00 | 0.00 | 0.00 | 82 | 1051.5 |
| 20260905115416 | 73 | 23 | 0.9 | 3.5 | 0.00 | 0.00 | 0.00 | 84 | 1051.7 |
| 20260905114911 | 73 | 307 | 0.0 | 0.9 | 0.00 | 0.00 | 0.00 | 86 | 1051.6 |
| 20260905114410 | 73 | 329 | 0.0 | 2.6 | 0.00 | 0.00 | 0.00 | 85 | 1051.5 |
| 20260905113909 | 74 | 298 | 0.0 | 6.1 | 0.00 | 0.00 | 0.00 | 88 | 1051.2 |
| 20260905113405 | 74 | 307 | 0.0 | 0.9 | 0.00 | 0.00 | 0.00 | 90 | 1051.0 |
| 20260905112900 | 74 | 307 | 0.0 | 0.0 | 0.00 | 0.00 | 0.00 | 93 | 1050.7 |
| 20260905112355 | 74 | 311 | 0.9 | 0.9 | 0.00 | 0.00 | 0.00 | 93 | 1050.8 |
| 20260905111851 | 74 | 298 | 0.9 | 1.7 | 0.00 | 0.00 | 0.00 | 95 | 1051.2 |
| 20260905111350 | 74 | 54 | 0.0 | 0.9 | 0.00 | 0.00 | 0.00 | 97 | 1051.1 |
| 20260905110849 | 73 | 292 | 0.0 | 0.0 | 0.00 | 0.00 | 0.00 | 97 | 1051.0 |
| 20260905110344 | 73 | 290 | 0.0 | 0.0 | 0.00 | 0.00 | 0.00 | 97 | 1050.6 |
| 20260905105839 | 73 | 290 | 0.0 | 0.0 | 0.00 | 0.00 | 0.00 | 97 | 1050.1 |
| 20260905105339 | 73 | 289 | 0.0 | 0.0 | 0.00 | 0.00 | 0.00 | 97 | 1050.3 |
| 20260905104838 | 73 | 289 | 0.9 | 0.9 | 0.00 | 0.00 | 0.00 | 97 | 1050.1 |
| 20260905104335 | 73 | 290 | 1.7 | 2.6 | 0.00 | 0.00 | 0.00 | 97 | 1050.0 |
| 20260905103835 | 73 | 289 | 1.7 | 2.6 | 0.00 | 0.00 | 0.00 | 97 | 1050.2 |
| 20260905103330 | 73 | 159 | 0.0 | 0.0 | 0.00 | 0.00 | 0.00 | 97 | 1050.0 |
| 20260905102826 | 73 | 158 | 0.0 | 0.0 | 0.00 | 0.00 | 0.00 | 97 | 1049.8 |
| 20260905102323 | 72 | 158 | 0.0 | 0.0 | 0.00 | 0.00 | 0.00 | 97 | 1049.7 |
| 20260905101822 | 73 | 158 | 0.0 | 0.0 | 0.00 | 0.00 | 0.00 | 97 | 1049.6 |
| 20260905101321 | 73 | 158 | 0.0 | 0.0 | 0.00 | 0.00 | 0.00 | 97 | 1049.8 |
| 20260905100816 | 73 | 158 | 0.0 | 0.0 | 0.00 | 0.00 | 0.00 | 97 | 1049.9 |
| 20260905100312 | 73 | 158 | 0.0 | 0.0 | 0.00 | 0.00 | 0.00 | 97 | 1049.9 |
| 20260905095811 | 73 | 158 | 0.0 | 0.0 | 0.00 | 0.00 | 0.00 | 97 | 1049.5 |
| 20260905095310 | 73 | 158 | 0.0 | 0.0 | 0.00 | 0.00 | 0.00 | 97 | 1049.9 |
| 20260905094805 | 73 | 158 | 0.0 | 0.0 | 0.00 | 0.00 | 0.00 | 97 | 1049.8 |
| 20260905094301 | 73 | 158 | 0.0 | 0.0 | 0.00 | 0.00 | 0.00 | 97 | 1049.6 |
| 20260905093800 | 73 | 158 | 0.0 | 0.0 | 0.00 | 0.00 | 0.00 | 97 | 1049.8 |
| 20260905093256 | 73 | 158 | 0.0 | 0.0 | 0.00 | 0.00 | 0.00 | 97 | 1049.5 |
| 20260905092751 | 73 | 158 | 0.0 | 0.0 | 0.00 | 0.00 | 0.00 | 97 | 1049.6 |
| 20260905092247 | 73 | 158 | 0.0 | 0.0 | 0.00 | 0.00 | 0.00 | 97 | 1049.5 |
| 20260905091746 | 73 | 158 | 0.0 | 0.0 | 0.00 | 0.00 | 0.00 | 97 | 1049.6 |
| 20260905091241 | 73 | 158 | 0.0 | 0.0 | 0.00 | 0.00 | 0.00 | 97 | 1049.8 |
| 20260905090740 | 73 | 158 | 0.0 | 0.0 | 0.00 | 0.00 | 0.00 | 97 | 1049.6 |
| 20260905090236 | 73 | 158 | 0.0 | 0.0 | 0.00 | 0.00 | 0.00 | 97 | 1049.6 |
| 20260905085735 | 73 | 158 | 0.0 | 0.0 | 0.00 | 0.00 | 0.00 | 97 | 1049.6 |
| 20260905085230 | 73 | 158 | 0.0 | 0.0 | 0.00 | 0.00 | 0.00 | 97 | 1049.3 |
| 20260905084730 | 73 | 158 | 0.0 | 0.0 | 0.00 | 0.00 | 0.00 | 97 | 1049.6 |
| 20260905084229 | 74 | 158 | 0.0 | 0.0 | 0.00 | 0.00 | 0.00 | 97 | 1049.5 |
| 20260905083725 | 73 | 158 | 0.0 | 0.0 | 0.00 | 0.00 | 0.00 | 97 | 1049.2 |
| 20260905083220 | 73 | 158 | 0.0 | 0.0 | 0.00 | 0.00 | 0.00 | 96 | 1049.5 |
| 20260905082716 | 73 | 158 | 0.0 | 0.0 | 0.00 | 0.00 | 0.00 | 96 | 1049.3 |
| 20260905082212 | 73 | 158 | 0.0 | 0.0 | 0.00 | 0.00 | 0.00 | 96 | 1049.1 |
| 20260905081712 | 73 | 158 | 0.0 | 0.0 | 0.00 | 0.00 | 0.00 | 96 | 1049.2 |
| 20260905081207 | 73 | 158 | 0.0 | 0.0 | 0.00 | 0.00 | 0.00 | 96 | 1049.6 |
| 20260905080707 | 73 | 158 | 0.0 | 0.0 | 0.00 | 0.00 | 0.00 | 96 | 1049.3 |
| 20260905080207 | 73 | 158 | 0.0 | 0.0 | 0.00 | 0.00 | 0.00 | 95 | 1049.5 |
| 20260905075706 | 73 | 158 | 0.0 | 0.0 | 0.00 | 0.00 | 0.00 | 95 | 1049.7 |
| 20260905075205 | 74 | 158 | 0.0 | 0.0 | 0.00 | 0.00 | 0.00 | 94 | 1049.6 |
| 20260905074704 | 74 | 158 | 0.0 | 0.0 | 0.00 | 0.00 | 0.00 | 95 | 1049.6 |
| 20260905074200 | 74 | 158 | 0.0 | 0.0 | 0.00 | 0.00 | 0.00 | 96 | 1049.5 |
| 20260905073655 | 74 | 158 | 0.0 | 0.0 | 0.00 | 0.00 | 0.00 | 96 | 1049.6 |
| 20260905073151 | 74 | 158 | 0.0 | 0.0 | 0.00 | 0.00 | 0.00 | 96 | 1049.9 |
| 20260905072650 | 73 | 158 | 0.0 | 0.0 | 0.00 | 0.00 | 0.00 | 96 | 1049.8 |
| 20260905072146 | 73 | 158 | 0.0 | 0.0 | 0.00 | 0.00 | 0.00 | 95 | 1049.9 |
| 20260905071642 | 74 | 158 | 0.0 | 0.0 | 0.00 | 0.00 | 0.00 | 95 | 1049.9 |
| 20260905071138 | 74 | 158 | 0.0 | 0.0 | 0.00 | 0.00 | 0.00 | 95 | 1050.1 |
| 20260905070633 | 74 | 158 | 0.0 | 0.0 | 0.00 | 0.00 | 0.00 | 95 | 1050.2 |
| 20260905070129 | 74 | 158 | 0.0 | 0.0 | 0.00 | 0.00 | 0.00 | 95 | 1049.9 |
| 20260905065627 | 74 | 158 | 0.0 | 0.0 | 0.00 | 0.00 | 0.00 | 95 | 1050.0 |
| 20260905065121 | 74 | 158 | 0.0 | 0.0 | 0.00 | 0.00 | 0.00 | 95 | 1050.0 |
| 20260905064616 | 74 | 158 | 0.0 | 0.0 | 0.00 | 0.00 | 0.00 | 95 | 1050.2 |
| 20260905064112 | 74 | 158 | 0.0 | 0.0 | 0.00 | 0.00 | 0.00 | 95 | 1050.3 |
| 20260905063611 | 74 | 158 | 0.0 | 0.0 | 0.00 | 0.00 | 0.00 | 95 | 1050.2 |
| 20260905063108 | 75 | 158 | 0.0 | 0.0 | 0.00 | 0.00 | 0.00 | 95 | 1050.1 |
| 20260905062603 | 75 | 158 | 0.0 | 0.0 | 0.00 | 0.00 | 0.00 | 94 | 1050.3 |
| 20260905062102 | 75 | 157 | 0.0 | 0.0 | 0.00 | 0.00 | 0.00 | 95 | 1050.4 |
| 20260905061557 | 75 | 157 | 0.0 | 0.0 | 0.00 | 0.00 | 0.00 | 95 | 1050.6 |
| 20260905061056 | 75 | 158 | 0.0 | 0.0 | 0.00 | 0.00 | 0.00 | 94 | 1050.6 |
| 20260905060552 | 75 | 158 | 0.0 | 0.0 | 0.00 | 0.00 | 0.00 | 94 | 1050.9 |
| 20260905060048 | 75 | 158 | 0.0 | 0.0 | 0.00 | 0.00 | 0.00 | 94 | 1050.7 |
| 20260905055547 | 75 | 158 | 0.0 | 0.0 | 0.00 | 0.00 | 0.00 | 95 | 1050.8 |
| 20260905055042 | 75 | 157 | 0.0 | 0.0 | 0.00 | 0.00 | 0.00 | 93 | 1050.7 |
| 20260905054537 | 75 | 157 | 0.0 | 0.0 | 0.00 | 0.00 | 0.00 | 93 | 1050.7 |
| 20260905054033 | 76 | 157 | 0.0 | 0.0 | 0.00 | 0.00 | 0.00 | 93 | 1050.8 |
| 20260905053532 | 76 | 157 | 0.0 | 0.0 | 0.00 | 0.00 | 0.00 | 92 | 1050.6 |
| 20260905053028 | 76 | 157 | 0.0 | 0.0 | 0.00 | 0.00 | 0.00 | 92 | 1050.6 |
| 20260905052527 | 76 | 153 | 0.0 | 2.6 | 0.00 | 0.00 | 0.00 | 93 | 1050.9 |
| 20260905052022 | 75 | 150 | 1.7 | 1.7 | 0.00 | 0.00 | 0.00 | 94 | 1051.1 |
| 20260905051518 | 75 | 149 | 0.0 | 0.0 | 0.00 | 0.00 | 0.00 | 94 | 1051.0 |
| 20260905051015 | 75 | 149 | 0.0 | 0.0 | 0.00 | 0.00 | 0.00 | 94 | 1051.1 |
| 20260905050510 | 75 | 149 | 0.0 | 0.0 | 0.00 | 0.00 | 0.00 | 93 | 1051.0 |
| 20260905050007 | 75 | 150 | 0.0 | 0.0 | 0.00 | 0.00 | 0.00 | 93 | 1051.0 |
| 20260905045501 | 75 | 149 | 0.0 | 0.0 | 0.00 | 0.00 | 0.00 | 92 | 1050.8 |
| 20260905044956 | 75 | 149 | 0.0 | 0.0 | 0.00 | 0.00 | 0.00 | 93 | 1051.0 |
| 20260905044451 | 75 | 149 | 0.0 | 0.0 | 0.00 | 0.00 | 0.00 | 93 | 1051.0 |
| 20260905043950 | 75 | 149 | 0.0 | 0.0 | 0.00 | 0.00 | 0.00 | 92 | 1051.2 |
| 20260905043444 | 75 | 149 | 0.0 | 0.0 | 0.00 | 0.00 | 0.00 | 92 | 1051.1 |
| 20260905042939 | 75 | 149 | 0.0 | 0.0 | 0.00 | 0.00 | 0.00 | 92 | 1051.0 |
| 20260905042439 | 75 | 150 | 0.0 | 0.0 | 0.00 | 0.00 | 0.00 | 92 | 1050.7 |
| 20260905041934 | 75 | 150 | 0.0 | 0.0 | 0.00 | 0.00 | 0.00 | 92 | 1050.8 |
| 20260905041430 | 75 | 150 | 0.0 | 0.0 | 0.00 | 0.00 | 0.00 | 91 | 1050.7 |
| 20260905040925 | 76 | 150 | 0.0 | 0.0 | 0.00 | 0.00 | 0.00 | 91 | 1050.7 |
| 20260905040424 | 76 | 150 | 0.0 | 0.0 | 0.00 | 0.00 | 0.00 | 92 | 1050.9 |
| 20260905035923 | 76 | 150 | 0.0 | 0.0 | 0.00 | 0.00 | 0.00 | 92 | 1051.0 |
| 20260905035419 | 75 | 147 | 0.0 | 0.0 | 0.00 | 0.00 | 0.00 | 93 | 1051.1 |
| 20260905034916 | 75 | 147 | 0.0 | 0.9 | 0.00 | 0.00 | 0.00 | 93 | 1051.2 |
| 20260905034411 | 75 | 185 | 0.0 | 0.0 | 0.00 | 0.00 | 0.00 | 93 | 1050.9 |
| 20260905033909 | 75 | 155 | 0.0 | 0.0 | 0.00 | 0.00 | 0.00 | 93 | 1050.9 |
| 20260905033405 | 75 | 155 | 0.0 | 0.0 | 0.00 | 0.00 | 0.00 | 92 | 1050.9 |
| 20260905032904 | 76 | 155 | 0.0 | 0.0 | 0.00 | 0.00 | 0.00 | 90 | 1050.8 |
| 20260905032400 | 76 | 199 | 0.0 | 0.0 | 0.00 | 0.00 | 0.00 | 90 | 1050.8 |
| 20260905031855 | 76 | 199 | 0.0 | 0.0 | 0.00 | 0.00 | 0.00 | 90 | 1050.8 |
| 20260905031350 | 76 | 199 | 0.0 | 0.0 | 0.00 | 0.00 | 0.00 | 90 | 1050.9 |
| 20260905030845 | 76 | 155 | 0.0 | 0.0 | 0.00 | 0.00 | 0.00 | 90 | 1051.1 |
| 20260905030341 | 76 | 199 | 0.0 | 0.0 | 0.00 | 0.00 | 0.00 | 90 | 1050.9 |